Terug naar catalogus

STARLINK-31608

ActiefCommunicatieVLEO
NORAD 59397·PAYLOAD·🇺🇸 United States

Gelanceerd Apr 2, 2024 vanaf Vandenberg Space Force Base

Loading…

Volgende Passages (komende 24 uur)

TLE

VersSource: CelesTrak SupGP

Epoch: Sep 15, 2026, 02:48 UTC

1 59397C 24062X   26258.11715278 -.00010950  00000+0 -32356-3 0  2588
2 59397  53.1578  93.1418 0000745  77.6647 186.3693 15.34393602    16

Volg STARLINK-31608 in realtime met AllMySat

Download on the App Store